Time,TemperatureF,DewpointF,PressureIn,WindDirection,WindDirectionDegrees,WindSpeedMPH,WindSpeedGustMPH,Humidity,HourlyPrecipIn,Conditions,Clouds,dailyrainin,SoftwareType,DateUTC
2013-01-25 00:01:00,15.3,7.9,30.52,ENE,67,2.0,2.0,72,0.00,,,0.01,Wunderground v.1.15,2013-01-25 05:01:00,
2013-01-25 00:02:00,15.3,7.9,30.52,ENE,71,1.0,2.0,72,0.00,,,0.00,Wunderground v.1.15,2013-01-25 05:02:00,
2013-01-25 00:03:00,15.3,7.9,30.52,East,80,1.0,2.0,72,0.00,,,0.00,Wunderground v.1.15,2013-01-25 05:03:00,
2013-01-25 00:04:00,15.3,7.9,30.52,ENE,71,1.0,2.0,72,0.00,,,0.00,Wunderground v.1.15,2013-01-25 05:04:00,
2013-01-25 00:09:00,15.3,7.9,30.52,East,83,1.0,2.0,72,0.00,,,0.00,Wunderground v.1.15,2013-01-25 05:09:00,
2013-01-25 00:14:00,15.3,7.9,30.52,ENE,71,1.0,2.0,72,0.00,,,0.00,Wunderground v.1.15,2013-01-25 05:14:00,
2013-01-25 00:19:00,15.2,7.5,30.51,East,84,1.0,4.0,71,0.00,,,0.00,Wunderground v.1.15,2013-01-25 05:19:00,
2013-01-25 00:25:00,15.1,7.7,30.51,ESE,113,2.0,5.0,72,0.00,,,0.00,Wunderground v.1.15,2013-01-25 05:25:00,
2013-01-25 00:30:00,15.0,7.6,30.50,East,94,1.0,1.0,72,0.00,,,0.00,Wunderground v.1.15,2013-01-25 05:30:00,
2013-01-25 00:35:00,14.9,7.5,30.51,ENE,73,0.0,1.0,72,0.00,,,0.00,Wunderground v.1.15,2013-01-25 05:35:00,
2013-01-25 00:40:00,14.9,7.5,30.51,ENE,74,0.0,0.0,72,0.00,,,0.00,Wunderground v.1.15,2013-01-25 05:40:00,
2013-01-25 00:46:00,14.9,7.5,30.51,East,93,1.0,1.0,72,0.00,,,0.00,Wunderground v.1.15,2013-01-25 05:46:00,
2013-01-25 00:51:00,14.9,7.5,30.50,ENE,60,1.0,1.0,72,0.00,,,0.00,Wunderground v.1.15,2013-01-25 05:51:00,
2013-01-25 00:56:00,15.0,7.6,30.50,ENE,71,0.0,2.0,72,0.00,,,0.00,Wunderground v.1.15,2013-01-25 05:56:00,
2013-01-25 01:01:00,15.0,7.6,30.50,East,92,0.0,1.0,72,0.00,,,0.00,Wunderground v.1.15,2013-01-25 06:01:00,
2013-01-25 01:06:00,14.9,7.5,30.50,East,101,1.0,2.0,72,0.00,,,0.00,Wunderground v.1.15,2013-01-25 06:06:00,
2013-01-25 01:12:00,14.8,7.1,30.49,ENE,68,1.0,2.0,71,0.00,,,0.00,Wunderground v.1.15,2013-01-25 06:12:00,
2013-01-25 01:17:00,14.8,7.1,30.49,ENE,73,1.0,2.0,71,0.00,,,0.00,Wunderground v.1.15,2013-01-25 06:17:00,
2013-01-25 01:23:00,14.7,7.0,30.49,East,82,0.0,1.0,71,0.00,,,0.00,Wunderground v.1.15,2013-01-25 06:23:00,
2013-01-25 01:29:00,14.6,6.9,30.48,NE,49,1.0,3.0,71,0.00,,,0.00,Wunderground v.1.15,2013-01-25 06:29:00,
2013-01-25 01:34:00,14.6,6.9,30.48,East,88,1.0,2.0,71,0.00,,,0.00,Wunderground v.1.15,2013-01-25 06:34:00,
2013-01-25 01:40:00,14.6,6.9,30.47,East,88,1.0,2.0,71,0.00,,,0.00,Wunderground v.1.15,2013-01-25 06:40:00,
2013-01-25 01:45:00,14.7,7.0,30.47,NE,49,1.0,2.0,71,0.00,,,0.00,Wunderground v.1.15,2013-01-25 06:45:00,
2013-01-25 01:50:00,14.8,7.4,30.47,East,87,1.0,1.0,72,0.00,,,0.00,Wunderground v.1.15,2013-01-25 06:50:00,
2013-01-25 01:56:00,14.9,7.2,30.47,ESE,103,1.0,2.0,71,0.00,,,0.00,Wunderground v.1.15,2013-01-25 06:56:00,
2013-01-25 02:01:00,15.0,7.3,30.46,ENE,76,1.0,2.0,71,0.00,,,0.00,Wunderground v.1.15,2013-01-25 07:01:00,
2013-01-25 02:06:00,15.1,7.4,30.46,ESE,102,1.0,4.0,71,0.00,,,0.00,Wunderground v.1.15,2013-01-25 07:06:00,
2013-01-25 02:12:00,15.3,7.3,30.46,ESE,103,2.0,3.0,70,0.00,,,0.00,Wunderground v.1.15,2013-01-25 07:12:00,
2013-01-25 02:17:00,15.4,7.4,30.45,ENE,65,2.0,3.0,70,0.00,,,0.00,Wunderground v.1.15,2013-01-25 07:17:00,
2013-01-25 02:22:00,15.5,7.5,30.46,East,81,2.0,3.0,70,0.00,,,0.00,Wunderground v.1.15,2013-01-25 07:22:00,
2013-01-25 02:28:00,15.6,7.2,30.45,ENE,71,2.0,4.0,69,0.00,,,0.00,Wunderground v.1.15,2013-01-25 07:28:00,
2013-01-25 02:33:00,15.6,7.2,30.45,East,86,3.0,9.0,69,0.00,,,0.00,Wunderground v.1.15,2013-01-25 07:33:00,
2013-01-25 02:38:00,15.7,7.3,30.45,East,80,3.0,9.0,69,0.00,,,0.00,Wunderground v.1.15,2013-01-25 07:38:00,
2013-01-25 02:43:00,15.6,7.2,30.45,ENE,69,2.0,5.0,69,0.00,,,0.00,Wunderground v.1.15,2013-01-25 07:43:00,
2013-01-25 02:49:00,15.6,7.2,30.46,ESE,105,2.0,5.0,69,0.00,,,0.00,Wunderground v.1.15,2013-01-25 07:49:00,
2013-01-25 02:54:00,15.7,7.3,30.46,ENE,64,2.0,2.0,69,0.00,,,0.00,Wunderground v.1.15,2013-01-25 07:54:00,
2013-01-25 03:00:00,15.7,7.3,30.46,ENE,74,1.0,1.0,69,0.00,,,0.00,Wunderground v.1.15,2013-01-25 08:00:00,
2013-01-25 03:05:00,15.8,7.4,30.46,East,98,1.0,2.0,69,0.00,,,0.00,Wunderground v.1.15,2013-01-25 08:05:00,
2013-01-25 03:10:00,15.8,7.4,30.45,East,101,2.0,3.0,69,0.00,,,0.00,Wunderground v.1.15,2013-01-25 08:10:00,
2013-01-25 03:15:00,15.8,7.7,30.44,ESE,110,2.0,5.0,70,0.00,,,0.00,Wunderground v.1.15,2013-01-25 08:15:00,
2013-01-25 03:21:00,15.8,7.4,30.43,ENE,63,2.0,4.0,69,0.00,,,0.00,Wunderground v.1.15,2013-01-25 08:21:00,
2013-01-25 03:26:00,15.8,7.4,30.44,ENE,74,2.0,7.0,69,0.00,,,0.00,Wunderground v.1.15,2013-01-25 08:26:00,
2013-01-25 03:31:00,15.9,7.5,30.45,East,92,2.0,3.0,69,0.00,,,0.00,Wunderground v.1.15,2013-01-25 08:31:00,
2013-01-25 03:37:00,15.9,7.5,30.44,ENE,74,2.0,3.0,69,0.00,,,0.00,Wunderground v.1.15,2013-01-25 08:37:00,
2013-01-25 03:42:00,15.9,7.5,30.44,ENE,78,2.0,2.0,69,0.00,,,0.00,Wunderground v.1.15,2013-01-25 08:42:00,
2013-01-25 03:47:00,15.9,7.8,30.44,ENE,74,2.0,4.0,70,0.00,,,0.00,Wunderground v.1.15,2013-01-25 08:47:00,
2013-01-25 03:53:00,15.9,7.8,30.43,East,86,2.0,4.0,70,0.00,,,0.00,Wunderground v.1.15,2013-01-25 08:53:00,
2013-01-25 03:58:00,15.9,7.5,30.44,East,94,2.0,4.0,69,0.00,,,0.00,Wunderground v.1.15,2013-01-25 08:58:00,
2013-01-25 04:03:00,15.9,7.5,30.44,ESE,107,2.0,2.0,69,0.00,,,0.00,Wunderground v.1.15,2013-01-25 09:03:00,
2013-01-25 04:08:00,15.9,7.5,30.42,East,86,1.0,2.0,69,0.00,,,0.00,Wunderground v.1.15,2013-01-25 09:08:00,
2013-01-25 04:14:00,15.9,7.5,30.42,NE,38,2.0,5.0,69,0.00,,,0.00,Wunderground v.1.15,2013-01-25 09:14:00,
2013-01-25 04:19:00,15.9,7.5,30.42,East,97,3.0,5.0,69,0.00,,,0.00,Wunderground v.1.15,2013-01-25 09:19:00,
2013-01-25 04:24:00,15.9,7.8,30.42,ENE,63,2.0,2.0,70,0.00,,,0.00,Wunderground v.1.15,2013-01-25 09:24:00,
2013-01-25 04:29:00,15.9,7.5,30.41,ENE,78,2.0,4.0,69,0.00,,,0.00,Wunderground v.1.15,2013-01-25 09:29:00,
2013-01-25 04:35:00,15.9,7.8,30.39,East,79,3.0,5.0,70,0.00,,,0.00,Wunderground v.1.15,2013-01-25 09:35:00,
2013-01-25 04:40:00,15.8,7.7,30.39,East,88,4.0,5.0,70,0.00,,,0.00,Wunderground v.1.15,2013-01-25 09:40:00,
2013-01-25 04:46:00,15.8,7.4,30.39,ENE,63,3.0,5.0,69,0.00,,,0.00,Wunderground v.1.15,2013-01-25 09:46:00,
2013-01-25 04:51:00,15.8,7.4,30.38,East,99,4.0,5.0,69,0.00,,,0.00,Wunderground v.1.15,2013-01-25 09:51:00,
2013-01-25 04:56:00,15.8,9.6,30.37,ENE,78,4.0,9.0,76,0.00,,,0.00,Wunderground v.1.15,2013-01-25 09:56:00,
2013-01-25 05:02:00,15.8,7.4,30.37,East,89,3.0,6.0,69,0.00,,,0.00,Wunderground v.1.15,2013-01-25 10:02:00,
2013-01-25 05:07:00,15.8,7.4,30.36,ENE,68,4.0,6.0,69,0.00,,,0.00,Wunderground v.1.15,2013-01-25 10:07:00,
2013-01-25 05:12:00,15.8,7.4,30.36,East,89,5.0,5.0,69,0.00,,,0.00,Wunderground v.1.15,2013-01-25 10:12:00,
2013-01-25 05:18:00,15.7,7.3,30.35,ESE,115,5.0,11.0,69,0.00,,,0.00,Wunderground v.1.15,2013-01-25 10:18:00,
2013-01-25 05:24:00,15.8,7.4,30.35,East,86,5.0,9.0,69,0.00,,,0.00,Wunderground v.1.15,2013-01-25 10:24:00,
2013-01-25 05:29:00,15.8,7.7,30.34,ENE,74,4.0,9.0,70,0.00,,,0.00,Wunderground v.1.15,2013-01-25 10:29:00,
2013-01-25 05:34:00,15.8,8.1,30.34,ENE,61,5.0,7.0,71,0.00,,,0.00,Wunderground v.1.15,2013-01-25 10:34:00,
2013-01-25 05:39:00,15.9,7.8,30.33,East,91,5.0,7.0,70,0.00,,,0.00,Wunderground v.1.15,2013-01-25 10:39:00,
2013-01-25 05:44:00,15.9,7.8,30.32,ENE,77,5.0,10.0,70,0.00,,,0.00,Wunderground v.1.15,2013-01-25 10:44:00,
2013-01-25 05:50:00,15.9,7.8,30.32,ENE,61,5.0,5.0,70,0.00,,,0.00,Wunderground v.1.15,2013-01-25 10:50:00,
2013-01-25 05:55:00,15.9,7.8,30.31,East,98,5.0,6.0,70,0.00,,,0.00,Wunderground v.1.15,2013-01-25 10:55:00,
2013-01-25 06:01:00,15.9,7.8,30.31,ENE,57,4.0,4.0,70,0.00,,,0.00,Wunderground v.1.15,2013-01-25 11:01:00,
2013-01-25 06:06:00,15.9,7.8,30.31,East,90,4.0,9.0,70,0.00,,,0.00,Wunderground v.1.15,2013-01-25 11:06:00,
2013-01-25 06:11:00,15.9,7.5,30.31,East,86,4.0,8.0,69,0.00,,,0.00,Wunderground v.1.15,2013-01-25 11:11:00,
2013-01-25 06:17:00,16.0,7.6,30.31,ESE,107,4.0,8.0,69,0.00,,,0.00,Wunderground v.1.15,2013-01-25 11:17:00,
2013-01-25 06:22:00,16.0,7.3,30.32,East,89,4.0,5.0,68,0.00,,,0.00,Wunderground v.1.15,2013-01-25 11:22:00,
2013-01-25 06:27:00,16.0,7.3,30.31,ENE,77,4.0,5.0,68,0.00,,,0.00,Wunderground v.1.15,2013-01-25 11:27:00,
2013-01-25 06:33:00,16.0,7.6,30.31,SE,128,3.0,10.0,69,0.00,,,0.00,Wunderground v.1.15,2013-01-25 11:33:00,
2013-01-25 06:38:00,16.1,7.7,30.31,ESE,105,4.0,10.0,69,0.00,,,0.00,Wunderground v.1.15,2013-01-25 11:38:00,
2013-01-25 06:43:00,16.1,7.4,30.32,SE,136,4.0,4.0,68,0.00,,,0.00,Wunderground v.1.15,2013-01-25 11:43:00,
2013-01-25 06:48:00,16.1,7.4,30.32,SE,143,3.0,4.0,68,0.00,,,0.00,Wunderground v.1.15,2013-01-25 11:48:00,
2013-01-25 06:54:00,16.2,7.5,30.32,East,101,2.0,3.0,68,0.00,,,0.00,Wunderground v.1.15,2013-01-25 11:54:00,
2013-01-25 06:59:00,16.2,7.5,30.31,ESE,121,2.0,5.0,68,0.00,,,0.00,Wunderground v.1.15,2013-01-25 11:59:00,
2013-01-25 07:04:00,16.2,7.8,30.31,ESE,110,3.0,3.0,69,0.00,,,0.00,Wunderground v.1.15,2013-01-25 12:04:00,
2013-01-25 07:09:00,16.2,7.8,30.31,ENE,62,3.0,3.0,69,0.00,,,0.00,Wunderground v.1.15,2013-01-25 12:09:00,
2013-01-25 07:15:00,16.2,7.8,30.30,ESE,120,2.0,3.0,69,0.00,,,0.00,Wunderground v.1.15,2013-01-25 12:15:00,
2013-01-25 07:20:00,16.3,8.2,30.29,ESE,103,3.0,5.0,70,0.00,,,0.00,Wunderground v.1.15,2013-01-25 12:20:00,
2013-01-25 07:25:00,16.3,8.2,30.29,ESE,109,3.0,5.0,70,0.00,,,0.00,Wunderground v.1.15,2013-01-25 12:25:00,
2013-01-25 07:30:00,16.2,8.1,30.29,SE,124,3.0,3.0,70,0.00,,,0.00,Wunderground v.1.15,2013-01-25 12:30:00,
2013-01-25 07:35:00,16.2,8.4,30.29,East,89,2.0,7.0,71,0.00,,,0.00,Wunderground v.1.15,2013-01-25 12:35:00,
2013-01-25 07:41:00,15.9,9.1,30.29,ESE,122,3.0,4.0,74,0.00,,,0.00,Wunderground v.1.15,2013-01-25 12:41:00,
2013-01-25 07:46:00,15.5,9.3,30.29,ESE,105,3.0,4.0,76,0.00,,,0.00,Wunderground v.1.15,2013-01-25 12:46:00,
2013-01-25 07:51:00,15.3,9.7,30.28,ESE,112,3.0,3.0,78,0.00,,,0.00,Wunderground v.1.15,2013-01-25 12:51:00,
2013-01-25 07:57:00,15.0,9.7,30.27,East,84,3.0,3.0,79,0.00,,,0.00,Wunderground v.1.15,2013-01-25 12:57:00,
2013-01-25 08:02:00,14.8,10.0,30.27,SE,131,3.0,5.0,81,0.00,,,0.00,Wunderground v.1.15,2013-01-25 13:02:00,
2013-01-25 08:07:00,14.7,10.2,30.25,ESE,104,4.0,6.0,82,0.00,,,0.00,Wunderground v.1.15,2013-01-25 13:07:00,
2013-01-25 08:13:00,14.5,10.3,30.25,ENE,60,5.0,7.0,83,0.00,,,0.00,Wunderground v.1.15,2013-01-25 13:13:00,
2013-01-25 08:18:00,14.5,10.5,30.24,NE,44,5.0,8.0,84,0.00,,,0.00,Wunderground v.1.15,2013-01-25 13:18:00,
2013-01-25 08:23:00,14.4,10.4,30.23,ENE,72,4.0,7.0,84,0.00,,,0.00,Wunderground v.1.15,2013-01-25 13:23:00,
2013-01-25 08:28:00,14.4,10.7,30.23,East,81,4.0,7.0,85,0.00,,,0.00,Wunderground v.1.15,2013-01-25 13:28:00,
2013-01-25 08:33:00,14.4,10.7,30.24,ENE,67,4.0,4.0,85,0.00,,,0.00,Wunderground v.1.15,2013-01-25 13:33:00,
2013-01-25 08:39:00,14.5,10.8,30.24,ENE,59,3.0,4.0,85,0.00,,,0.00,Wunderground v.1.15,2013-01-25 13:39:00,
2013-01-25 08:44:00,14.6,11.2,30.24,ENE,69,2.0,5.0,86,0.00,,,0.00,Wunderground v.1.15,2013-01-25 13:44:00,
2013-01-25 08:50:00,14.6,11.2,30.24,ENE,78,2.0,2.0,86,0.00,,,0.00,Wunderground v.1.15,2013-01-25 13:50:00,
2013-01-25 08:55:00,14.7,11.3,30.24,ENE,75,3.0,4.0,86,0.00,,,0.00,Wunderground v.1.15,2013-01-25 13:55:00,
2013-01-25 09:00:00,14.7,11.3,30.24,ESE,105,3.0,3.0,86,0.00,,,0.00,Wunderground v.1.15,2013-01-25 14:00:00,
2013-01-25 09:06:00,14.8,11.4,30.24,East,98,3.0,6.0,86,0.00,,,0.00,Wunderground v.1.15,2013-01-25 14:06:00,
2013-01-25 09:11:00,14.9,11.7,30.24,ESE,112,3.0,6.0,87,0.00,,,0.00,Wunderground v.1.15,2013-01-25 14:11:00,
2013-01-25 09:16:00,14.9,11.7,30.24,ESE,119,3.0,6.0,87,0.00,,,0.00,Wunderground v.1.15,2013-01-25 14:16:00,
2013-01-25 09:22:00,14.9,11.7,30.23,East,84,3.0,3.0,87,0.00,,,0.00,Wunderground v.1.15,2013-01-25 14:22:00,
2013-01-25 09:27:00,14.9,11.7,30.23,SSE,153,3.0,4.0,87,0.00,,,0.00,Wunderground v.1.15,2013-01-25 14:27:00,
2013-01-25 09:32:00,15.0,11.8,30.23,SSE,153,2.0,5.0,87,0.00,,,0.00,Wunderground v.1.15,2013-01-25 14:32:00,
2013-01-25 09:38:00,15.0,11.8,30.23,ESE,119,3.0,6.0,87,0.00,,,0.00,Wunderground v.1.15,2013-01-25 14:38:00,
2013-01-25 09:44:00,14.9,11.7,30.22,ESE,114,3.0,6.0,87,0.00,,,0.00,Wunderground v.1.15,2013-01-25 14:44:00,
2013-01-25 09:49:00,14.9,11.7,30.22,ESE,111,4.0,6.0,87,0.00,,,0.00,Wunderground v.1.15,2013-01-25 14:49:00,
2013-01-25 09:54:00,15.0,11.8,30.22,ESE,117,3.0,4.0,87,0.00,,,0.00,Wunderground v.1.15,2013-01-25 14:54:00,
2013-01-25 10:00:00,15.0,11.8,30.22,ESE,115,1.0,1.0,87,0.00,,,0.00,Wunderground v.1.15,2013-01-25 15:00:00,
2013-01-25 10:05:00,15.2,12.0,30.21,ESE,117,2.0,4.0,87,0.00,,,0.00,Wunderground v.1.15,2013-01-25 15:05:00,
2013-01-25 10:10:00,15.3,12.1,30.21,ESE,119,3.0,3.0,87,0.00,,,0.00,Wunderground v.1.15,2013-01-25 15:10:00,
2013-01-25 10:16:00,15.5,12.3,30.21,ESE,123,3.0,6.0,87,0.00,,,0.00,Wunderground v.1.15,2013-01-25 15:16:00,
2013-01-25 10:21:00,15.6,12.4,30.21,ESE,111,3.0,3.0,87,0.00,,,0.00,Wunderground v.1.15,2013-01-25 15:21:00,
2013-01-25 10:26:00,15.7,12.5,30.21,NNE,29,2.0,3.0,87,0.00,,,0.00,Wunderground v.1.15,2013-01-25 15:26:00,
2013-01-25 10:32:00,15.8,12.6,30.20,ENE,75,3.0,3.0,87,0.00,,,0.00,Wunderground v.1.15,2013-01-25 15:32:00,
2013-01-25 10:37:00,15.8,12.6,30.20,East,94,4.0,4.0,87,0.00,,,0.00,Wunderground v.1.15,2013-01-25 15:37:00,
2013-01-25 10:42:00,15.8,12.6,30.19,East,99,4.0,4.0,87,0.00,,,0.00,Wunderground v.1.15,2013-01-25 15:42:00,
2013-01-25 10:48:00,15.8,12.6,30.19,ESE,103,4.0,7.0,87,0.00,,,0.00,Wunderground v.1.15,2013-01-25 15:48:00,
2013-01-25 10:53:00,15.8,12.6,30.18,East,81,4.0,6.0,87,0.00,,,0.00,Wunderground v.1.15,2013-01-25 15:53:00,
2013-01-25 10:58:00,15.9,12.7,30.18,ESE,119,4.0,9.0,87,0.00,,,0.00,Wunderground v.1.15,2013-01-25 15:58:00,
2013-01-25 11:04:00,16.0,12.8,30.17,ESE,113,4.0,5.0,87,0.00,,,0.00,Wunderground v.1.15,2013-01-25 16:04:00,
2013-01-25 11:09:00,16.0,12.8,30.18,East,100,3.0,5.0,87,0.00,,,0.00,Wunderground v.1.15,2013-01-25 16:09:00,
2013-01-25 11:15:00,16.1,12.9,30.17,ESE,106,3.0,4.0,87,0.00,,,0.00,Wunderground v.1.15,2013-01-25 16:15:00,
2013-01-25 11:21:00,16.2,13.0,30.17,SE,126,3.0,3.0,87,0.00,,,0.00,Wunderground v.1.15,2013-01-25 16:21:00,
2013-01-25 11:26:00,16.3,13.1,30.17,ESE,113,2.0,4.0,87,0.00,,,0.00,Wunderground v.1.15,2013-01-25 16:26:00,
2013-01-25 11:32:00,16.4,13.2,30.16,SE,128,2.0,3.0,87,0.00,,,0.00,Wunderground v.1.15,2013-01-25 16:32:00,
2013-01-25 11:37:00,16.5,13.3,30.16,ESE,111,2.0,3.0,87,0.00,,,0.00,Wunderground v.1.15,2013-01-25 16:37:00,
2013-01-25 11:43:00,16.7,13.5,30.16,East,96,2.0,2.0,87,0.00,,,0.00,Wunderground v.1.15,2013-01-25 16:43:00,
2013-01-25 11:48:00,17.0,13.8,30.16,ESE,122,1.0,3.0,87,0.00,,,0.00,Wunderground v.1.15,2013-01-25 16:48:00,
2013-01-25 11:53:00,17.0,13.8,30.15,SE,126,1.0,3.0,87,0.00,,,0.00,Wunderground v.1.15,2013-01-25 16:53:00,
2013-01-25 11:59:00,17.0,13.8,30.15,SE,136,1.0,4.0,87,0.00,,,0.00,Wunderground v.1.15,2013-01-25 16:59:00,
2013-01-25 12:04:00,17.1,13.9,30.15,ESE,118,2.0,2.0,87,0.00,,,0.00,Wunderground v.1.15,2013-01-25 17:04:00,
2013-01-25 12:09:00,17.2,14.0,30.15,SE,132,2.0,2.0,87,0.00,,,0.00,Wunderground v.1.15,2013-01-25 17:09:00,
2013-01-25 12:15:00,17.4,13.9,30.14,SE,136,2.0,4.0,86,0.00,,,0.00,Wunderground v.1.15,2013-01-25 17:15:00,
2013-01-25 12:20:00,17.7,14.2,30.14,SE,125,2.0,2.0,86,0.00,,,0.00,Wunderground v.1.15,2013-01-25 17:20:00,
2013-01-25 12:26:00,17.9,14.4,30.14,ESE,119,2.0,3.0,86,0.00,,,0.00,Wunderground v.1.15,2013-01-25 17:26:00,
2013-01-25 12:32:00,17.8,14.1,30.14,SE,144,2.0,3.0,85,0.00,,,0.00,Wunderground v.1.15,2013-01-25 17:32:00,
2013-01-25 12:37:00,17.7,14.0,30.13,ESE,108,1.0,3.0,85,0.00,,,0.00,Wunderground v.1.15,2013-01-25 17:37:00,
2013-01-25 12:42:00,17.7,14.0,30.13,ESE,112,0.0,1.0,85,0.00,,,0.00,Wunderground v.1.15,2013-01-25 17:42:00,
2013-01-25 12:48:00,17.9,14.2,30.13,ESE,113,0.0,1.0,85,0.00,,,0.00,Wunderground v.1.15,2013-01-25 17:48:00,
2013-01-25 12:53:00,18.1,14.4,30.12,ESE,111,0.0,1.0,85,0.00,,,0.00,Wunderground v.1.15,2013-01-25 17:53:00,
2013-01-25 12:58:00,18.3,14.5,30.11,ESE,115,1.0,3.0,85,0.00,,,0.00,Wunderground v.1.15,2013-01-25 17:58:00,
2013-01-25 13:03:00,18.6,14.8,30.11,ESE,116,1.0,5.0,85,0.00,,,0.00,Wunderground v.1.15,2013-01-25 18:03:00,
2013-01-25 13:09:00,18.7,16.8,30.11,SE,137,2.0,5.0,92,0.00,,,0.00,Wunderground v.1.15,2013-01-25 18:09:00,
2013-01-25 13:14:00,18.7,14.7,30.11,ESE,122,1.0,2.0,84,0.00,,,0.00,Wunderground v.1.15,2013-01-25 18:14:00,
2013-01-25 13:20:00,18.5,14.5,30.11,SE,134,1.0,2.0,84,0.00,,,0.00,Wunderground v.1.15,2013-01-25 18:20:00,
2013-01-25 13:25:00,18.7,14.7,30.11,SE,144,1.0,5.0,84,0.00,,,0.00,Wunderground v.1.15,2013-01-25 18:25:00,
2013-01-25 13:30:00,18.8,14.8,30.11,ESE,120,1.0,2.0,84,0.00,,,0.00,Wunderground v.1.15,2013-01-25 18:30:00,
2013-01-25 13:35:00,18.8,14.5,30.10,SE,137,1.0,3.0,83,0.00,,,0.00,Wunderground v.1.15,2013-01-25 18:35:00,
2013-01-25 13:41:00,19.1,15.1,30.10,SE,132,1.0,1.0,84,0.00,,,0.00,Wunderground v.1.15,2013-01-25 18:41:00,
2013-01-25 13:46:00,19.4,15.4,30.10,SSE,163,0.0,1.0,84,0.00,,,0.00,Wunderground v.1.15,2013-01-25 18:46:00,
2013-01-25 13:51:00,19.4,15.4,30.09,SE,131,0.0,0.0,84,0.00,,,0.00,Wunderground v.1.15,2013-01-25 18:51:00,
2013-01-25 13:56:00,19.6,15.6,30.09,South,173,0.0,0.0,84,0.00,,,0.00,Wunderground v.1.15,2013-01-25 18:56:00,
2013-01-25 14:02:00,19.6,15.3,30.09,SSE,160,0.0,0.0,83,0.00,,,0.00,Wunderground v.1.15,2013-01-25 19:02:00,
2013-01-25 14:07:00,19.5,15.2,30.09,SSE,168,0.0,0.0,83,0.00,,,0.00,Wunderground v.1.15,2013-01-25 19:07:00,
2013-01-25 14:12:00,19.7,15.4,30.09,SSE,152,0.0,1.0,83,0.00,,,0.00,Wunderground v.1.15,2013-01-25 19:12:00,
2013-01-25 14:18:00,19.9,15.6,30.09,SSE,157,1.0,2.0,83,0.00,,,0.00,Wunderground v.1.15,2013-01-25 19:18:00,
2013-01-25 14:23:00,19.9,15.3,30.09,SSE,157,0.0,1.0,82,0.00,,,0.00,Wunderground v.1.15,2013-01-25 19:23:00,
2013-01-25 14:28:00,20.0,15.7,30.08,SSE,157,0.0,1.0,83,0.00,,,0.00,Wunderground v.1.15,2013-01-25 19:28:00,
2013-01-25 14:34:00,20.4,15.8,30.08,SSE,157,0.0,0.0,82,0.00,,,0.00,Wunderground v.1.15,2013-01-25 19:34:00,
2013-01-25 14:40:00,20.5,15.9,30.08,SSE,157,0.0,0.0,82,0.00,,,0.00,Wunderground v.1.15,2013-01-25 19:40:00,
2013-01-25 14:45:00,20.8,16.2,30.08,SSE,157,0.0,0.0,82,0.00,,,0.00,Wunderground v.1.15,2013-01-25 19:45:00,
2013-01-25 14:51:00,21.0,16.4,30.08,SSE,157,0.0,0.0,82,0.00,,,0.00,Wunderground v.1.15,2013-01-25 19:51:00,
2013-01-25 14:56:00,21.1,16.2,30.08,South,174,0.0,0.0,81,0.00,,,0.00,Wunderground v.1.15,2013-01-25 19:56:00,
2013-01-25 15:01:00,21.0,16.1,30.08,South,179,0.0,0.0,81,0.00,,,0.00,Wunderground v.1.15,2013-01-25 20:01:00,
2013-01-25 15:06:00,20.9,16.0,30.08,South,179,0.0,0.0,81,0.00,,,0.00,Wunderground v.1.15,2013-01-25 20:06:00,
2013-01-25 15:12:00,20.7,15.5,30.07,South,189,0.0,2.0,80,0.00,,,0.00,Wunderground v.1.15,2013-01-25 20:12:00,
2013-01-25 15:17:00,20.5,15.6,30.07,South,189,0.0,2.0,81,0.00,,,0.00,Wunderground v.1.15,2013-01-25 20:17:00,
2013-01-25 15:22:00,20.4,15.5,30.07,South,189,0.0,0.0,81,0.00,,,0.00,Wunderground v.1.15,2013-01-25 20:22:00,
2013-01-25 15:27:00,20.4,15.5,30.07,South,189,0.0,0.0,81,0.00,,,0.00,Wunderground v.1.15,2013-01-25 20:27:00,
2013-01-25 15:33:00,20.4,15.5,30.07,South,189,0.0,0.0,81,0.00,,,0.00,Wunderground v.1.15,2013-01-25 20:33:00,
2013-01-25 15:38:00,20.4,15.5,30.07,South,189,0.0,2.0,81,0.00,,,0.00,Wunderground v.1.15,2013-01-25 20:38:00,
2013-01-25 15:43:00,20.2,15.6,30.07,South,189,0.0,0.0,82,0.00,,,0.00,Wunderground v.1.15,2013-01-25 20:43:00,
2013-01-25 15:49:00,20.3,15.7,30.07,South,189,0.0,0.0,82,0.00,,,0.00,Wunderground v.1.15,2013-01-25 20:49:00,
2013-01-25 15:54:00,20.5,15.9,30.06,South,189,0.0,0.0,82,0.00,,,0.00,Wunderground v.1.15,2013-01-25 20:54:00,
2013-01-25 15:59:00,20.4,15.8,30.06,SSW,199,0.0,0.0,82,0.00,,,0.00,Wunderground v.1.15,2013-01-25 20:59:00,
2013-01-25 16:04:00,20.3,15.7,30.06,SSW,197,0.0,2.0,82,0.00,,,0.00,Wunderground v.1.15,2013-01-25 21:04:00,
2013-01-25 16:10:00,20.2,15.6,30.06,SSW,197,0.0,0.0,82,0.00,,,0.00,Wunderground v.1.15,2013-01-25 21:10:00,
2013-01-25 16:15:00,20.1,15.5,30.06,SSW,198,1.0,2.0,82,0.00,,,0.00,Wunderground v.1.15,2013-01-25 21:15:00,
2013-01-25 16:20:00,20.0,15.4,30.06,SSW,198,1.0,1.0,82,0.00,,,0.00,Wunderground v.1.15,2013-01-25 21:20:00,
2013-01-25 16:25:00,19.9,15.6,30.06,SSW,198,1.0,2.0,83,0.00,,,0.00,Wunderground v.1.15,2013-01-25 21:25:00,
2013-01-25 16:31:00,19.9,15.6,30.06,SSW,198,1.0,3.0,83,0.00,,,0.00,Wunderground v.1.15,2013-01-25 21:31:00,
2013-01-25 16:36:00,19.7,15.4,30.07,SW,217,1.0,3.0,83,0.00,,,0.00,Wunderground v.1.15,2013-01-25 21:36:00,
2013-01-25 16:41:00,19.7,15.4,30.07,SW,222,3.0,4.0,83,0.00,,,0.00,Wunderground v.1.15,2013-01-25 21:41:00,
2013-01-25 16:47:00,19.6,15.3,30.08,WSW,237,3.0,4.0,83,0.00,,,0.00,Wunderground v.1.15,2013-01-25 21:47:00,
2013-01-25 16:52:00,19.4,15.1,30.08,WSW,244,3.0,4.0,83,0.00,,,0.00,Wunderground v.1.15,2013-01-25 21:52:00,
2013-01-25 16:57:00,19.4,15.1,30.08,SW,234,2.0,4.0,83,0.00,,,0.00,Wunderground v.1.15,2013-01-25 21:57:00,
2013-01-25 17:02:00,19.3,15.0,30.08,WSW,242,2.0,3.0,83,0.00,,,0.00,Wunderground v.1.15,2013-01-25 22:02:00,
2013-01-25 17:08:00,19.2,14.9,30.07,SW,225,3.0,3.0,83,0.00,,,0.00,Wunderground v.1.15,2013-01-25 22:08:00,
2013-01-25 17:14:00,19.2,15.2,30.08,SW,226,2.0,3.0,84,0.00,,,0.00,Wunderground v.1.15,2013-01-25 22:14:00,
2013-01-25 17:19:00,19.1,15.1,30.08,WSW,247,2.0,3.0,84,0.00,,,0.00,Wunderground v.1.15,2013-01-25 22:19:00,
2013-01-25 17:24:00,19.0,15.0,30.08,WSW,238,1.0,3.0,84,0.00,,,0.00,Wunderground v.1.15,2013-01-25 22:24:00,
2013-01-25 17:30:00,19.0,15.2,30.08,SW,231,0.0,1.0,85,0.00,,,0.00,Wunderground v.1.15,2013-01-25 22:30:00,
2013-01-25 17:35:00,19.0,15.2,30.09,SW,232,0.0,2.0,85,0.00,,,0.00,Wunderground v.1.15,2013-01-25 22:35:00,
2013-01-25 17:40:00,19.0,15.2,30.08,SW,229,1.0,1.0,85,0.00,,,0.00,Wunderground v.1.15,2013-01-25 22:40:00,
2013-01-25 17:45:00,19.0,15.2,30.08,SW,229,0.0,1.0,85,0.00,,,0.00,Wunderground v.1.15,2013-01-25 22:45:00,
2013-01-25 17:51:00,19.0,15.2,30.08,SW,229,0.0,0.0,85,0.00,,,0.00,Wunderground v.1.15,2013-01-25 22:51:00,
2013-01-25 17:56:00,19.0,15.2,30.08,WSW,248,0.0,0.0,85,0.00,,,0.00,Wunderground v.1.15,2013-01-25 22:56:00,
2013-01-25 18:01:00,19.0,15.2,30.08,WSW,238,1.0,3.0,85,0.00,,,0.00,Wunderground v.1.15,2013-01-25 23:01:00,
2013-01-25 18:06:00,19.0,15.2,30.08,West,264,1.0,3.0,85,0.00,,,0.00,Wunderground v.1.15,2013-01-25 23:06:00,
2013-01-25 18:11:00,19.0,15.2,30.08,West,264,1.0,1.0,85,0.00,,,0.00,Wunderground v.1.15,2013-01-25 23:11:00,
2013-01-25 18:17:00,19.0,15.2,30.09,WSW,254,0.0,2.0,85,0.00,,,0.00,Wunderground v.1.15,2013-01-25 23:17:00,
2013-01-25 18:22:00,19.0,15.2,30.09,WSW,246,1.0,6.0,85,0.00,,,0.00,Wunderground v.1.15,2013-01-25 23:22:00,
2013-01-25 18:27:00,19.0,15.2,30.09,SW,236,1.0,6.0,85,0.00,,,0.00,Wunderground v.1.15,2013-01-25 23:27:00,
2013-01-25 18:32:00,19.0,15.2,30.09,SW,236,1.0,3.0,85,0.00,,,0.00,Wunderground v.1.15,2013-01-25 23:32:00,
2013-01-25 18:38:00,19.0,15.2,30.10,WSW,237,2.0,3.0,85,0.00,,,0.00,Wunderground v.1.15,2013-01-25 23:38:00,
2013-01-25 18:43:00,19.0,15.2,30.10,WSW,237,1.0,1.0,85,0.00,,,0.00,Wunderground v.1.15,2013-01-25 23:43:00,
2013-01-25 18:48:00,19.0,15.2,30.09,WSW,237,0.0,1.0,85,0.00,,,0.00,Wunderground v.1.15,2013-01-25 23:48:00,
2013-01-25 18:54:00,19.0,15.2,30.10,WSW,238,0.0,4.0,85,0.00,,,0.00,Wunderground v.1.15,2013-01-25 23:54:00,
2013-01-25 18:59:00,19.0,15.2,30.10,WSW,238,1.0,4.0,85,0.00,,,0.00,Wunderground v.1.15,2013-01-25 23:59:00,
2013-01-25 19:04:00,19.0,15.2,30.09,WSW,241,2.0,3.0,85,0.00,,,0.00,Wunderground v.1.15,2013-01-26 00:04:00,
2013-01-25 19:09:00,19.0,15.2,30.10,SW,233,1.0,3.0,85,0.00,,,0.00,Wunderground v.1.15,2013-01-26 00:09:00,
2013-01-25 19:15:00,19.1,15.3,30.09,WSW,238,1.0,3.0,85,0.00,,,0.00,Wunderground v.1.15,2013-01-26 00:15:00,
2013-01-25 19:20:00,19.1,15.3,30.09,SW,224,1.0,2.0,85,0.00,,,0.00,Wunderground v.1.15,2013-01-26 00:20:00,
2013-01-25 19:25:00,19.1,15.6,30.09,SW,225,1.0,2.0,86,0.00,,,0.00,Wunderground v.1.15,2013-01-26 00:25:00,
2013-01-25 19:30:00,19.0,15.5,30.09,SW,232,2.0,3.0,86,0.00,,,0.00,Wunderground v.1.15,2013-01-26 00:30:00,
2013-01-25 19:35:00,19.1,15.6,30.10,SW,223,2.0,6.0,86,0.00,,,0.00,Wunderground v.1.15,2013-01-26 00:35:00,
2013-01-25 19:41:00,19.1,15.6,30.10,SSW,211,1.0,1.0,86,0.00,,,0.00,Wunderground v.1.15,2013-01-26 00:41:00,
2013-01-25 19:46:00,19.1,15.6,30.09,SSW,211,1.0,1.0,86,0.00,,,0.00,Wunderground v.1.15,2013-01-26 00:46:00,
2013-01-25 19:51:00,19.1,15.6,30.10,SSW,211,0.0,0.0,86,0.00,,,0.00,Wunderground v.1.15,2013-01-26 00:51:00,
2013-01-25 19:57:00,19.1,15.6,30.10,SSW,213,0.0,2.0,86,0.00,,,0.00,Wunderground v.1.15,2013-01-26 00:57:00,
2013-01-25 20:02:00,19.1,15.6,30.10,SW,217,1.0,4.0,86,0.00,,,0.00,Wunderground v.1.15,2013-01-26 01:02:00,
2013-01-25 20:07:00,19.1,15.6,30.10,SW,221,2.0,4.0,86,0.00,,,0.00,Wunderground v.1.15,2013-01-26 01:07:00,
2013-01-25 20:13:00,19.1,15.6,30.10,SW,217,1.0,3.0,86,0.00,,,0.00,Wunderground v.1.15,2013-01-26 01:13:00,
2013-01-25 20:18:00,19.1,15.6,30.10,SW,216,2.0,4.0,86,0.00,,,0.00,Wunderground v.1.15,2013-01-26 01:18:00,
2013-01-25 20:23:00,19.1,15.6,30.10,SW,235,2.0,4.0,86,0.00,,,0.00,Wunderground v.1.15,2013-01-26 01:23:00,
2013-01-25 20:28:00,19.1,15.6,30.10,SW,234,3.0,5.0,86,0.00,,,0.00,Wunderground v.1.15,2013-01-26 01:28:00,
2013-01-25 20:33:00,19.2,15.7,30.10,SW,227,2.0,4.0,86,0.00,,,0.00,Wunderground v.1.15,2013-01-26 01:33:00,
2013-01-25 20:39:00,19.2,15.7,30.10,SW,223,2.0,4.0,86,0.00,,,0.00,Wunderground v.1.15,2013-01-26 01:39:00,
2013-01-25 20:44:00,19.1,15.6,30.09,SSW,192,2.0,5.0,86,0.00,,,0.00,Wunderground v.1.15,2013-01-26 01:44:00,
2013-01-25 20:49:00,19.1,15.6,30.09,SSW,196,2.0,5.0,86,0.00,,,0.00,Wunderground v.1.15,2013-01-26 01:49:00,
2013-01-25 20:54:00,19.0,15.8,30.11,WSW,240,2.0,3.0,87,0.00,,,0.00,Wunderground v.1.15,2013-01-26 01:54:00,
2013-01-25 21:00:00,19.1,15.9,30.12,West,259,1.0,1.0,87,0.00,,,0.00,Wunderground v.1.15,2013-01-26 02:00:00,
2013-01-25 21:05:00,19.1,15.9,30.13,West,261,1.0,1.0,87,0.00,,,0.00,Wunderground v.1.15,2013-01-26 02:05:00,
2013-01-25 21:10:00,19.2,16.0,30.13,West,259,1.0,1.0,87,0.00,,,0.00,Wunderground v.1.15,2013-01-26 02:10:00,
2013-01-25 21:15:00,19.3,16.1,30.14,WSW,252,1.0,1.0,87,0.00,,,0.00,Wunderground v.1.15,2013-01-26 02:15:00,
2013-01-25 21:21:00,19.3,16.1,30.14,SW,236,0.0,1.0,87,0.00,,,0.00,Wunderground v.1.15,2013-01-26 02:21:00,
2013-01-25 21:26:00,19.4,16.2,30.14,WSW,240,0.0,4.0,87,0.00,,,0.00,Wunderground v.1.15,2013-01-26 02:26:00,
2013-01-25 21:31:00,19.5,16.3,30.15,WSW,244,1.0,1.0,87,0.00,,,0.00,Wunderground v.1.15,2013-01-26 02:31:00,
2013-01-25 21:37:00,19.7,16.5,30.15,WSW,244,0.0,1.0,87,0.00,,,0.00,Wunderground v.1.15,2013-01-26 02:37:00,
2013-01-25 21:42:00,19.7,16.5,30.15,WSW,239,1.0,2.0,87,0.00,,,0.00,Wunderground v.1.15,2013-01-26 02:42:00,
2013-01-25 21:47:00,19.7,16.5,30.15,WSW,246,1.0,3.0,87,0.00,,,0.00,Wunderground v.1.15,2013-01-26 02:47:00,
2013-01-25 21:53:00,19.8,16.6,30.15,WSW,246,0.0,0.0,87,0.00,,,0.00,Wunderground v.1.15,2013-01-26 02:53:00,
2013-01-25 21:58:00,19.8,16.6,30.15,WSW,246,0.0,2.0,87,0.00,,,0.00,Wunderground v.1.15,2013-01-26 02:58:00,
2013-01-25 22:03:00,20.0,17.0,30.15,WSW,246,1.0,2.0,88,0.00,,,0.00,Wunderground v.1.15,2013-01-26 03:03:00,
2013-01-25 22:09:00,20.0,17.0,30.15,WSW,244,1.0,3.0,88,0.00,,,0.00,Wunderground v.1.15,2013-01-26 03:09:00,
2013-01-25 22:14:00,20.0,17.0,30.15,WSW,244,0.0,1.0,88,0.00,,,0.00,Wunderground v.1.15,2013-01-26 03:14:00,
2013-01-25 22:19:00,20.1,17.1,30.15,SW,236,0.0,1.0,88,0.00,,,0.00,Wunderground v.1.15,2013-01-26 03:19:00,
2013-01-25 22:25:00,20.1,17.1,30.15,SW,236,0.0,0.0,88,0.00,,,0.00,Wunderground v.1.15,2013-01-26 03:25:00,
2013-01-25 22:30:00,20.1,17.1,30.15,SW,223,0.0,0.0,88,0.00,,,0.00,Wunderground v.1.15,2013-01-26 03:30:00,
2013-01-25 22:35:00,20.2,17.5,30.15,SW,220,1.0,3.0,89,0.00,,,0.00,Wunderground v.1.15,2013-01-26 03:35:00,
2013-01-25 22:40:00,20.2,17.5,30.15,SW,222,1.0,1.0,89,0.00,,,0.00,Wunderground v.1.15,2013-01-26 03:40:00,
2013-01-25 22:46:00,20.3,17.6,30.15,SW,214,1.0,3.0,89,0.00,,,0.00,Wunderground v.1.15,2013-01-26 03:46:00,
2013-01-25 22:51:00,20.4,17.7,30.15,SW,222,2.0,2.0,89,0.00,,,0.00,Wunderground v.1.15,2013-01-26 03:51:00,
2013-01-25 22:56:00,20.4,17.9,30.15,SSW,212,2.0,4.0,90,0.00,,,0.00,Wunderground v.1.15,2013-01-26 03:56:00,
2013-01-25 23:01:00,20.4,17.9,30.14,SW,225,2.0,2.0,90,0.00,,,0.00,Wunderground v.1.15,2013-01-26 04:01:00,
2013-01-25 23:07:00,20.4,17.9,30.14,SW,221,1.0,5.0,90,0.00,,,0.00,Wunderground v.1.15,2013-01-26 04:07:00,
2013-01-25 23:12:00,20.5,18.0,30.14,SW,222,1.0,1.0,90,0.00,,,0.00,Wunderground v.1.15,2013-01-26 04:12:00,
2013-01-25 23:17:00,20.5,18.0,30.14,SW,219,0.0,1.0,90,0.00,,,0.00,Wunderground v.1.15,2013-01-26 04:17:00,
2013-01-25 23:23:00,20.6,18.1,30.14,SSW,209,1.0,4.0,90,0.00,,,0.00,Wunderground v.1.15,2013-01-26 04:23:00,
2013-01-25 23:29:00,20.6,18.4,30.14,SSW,209,2.0,4.0,91,0.00,,,0.00,Wunderground v.1.15,2013-01-26 04:29:00,
2013-01-25 23:34:00,20.7,18.5,30.14,WSW,245,2.0,5.0,91,0.00,,,0.00,Wunderground v.1.15,2013-01-26 04:34:00,
2013-01-25 23:40:00,20.9,18.7,30.14,SW,228,2.0,3.0,91,0.00,,,0.00,Wunderground v.1.15,2013-01-26 04:40:00,
2013-01-25 23:45:00,21.0,18.8,30.14,WSW,242,2.0,3.0,91,0.00,,,0.00,Wunderground v.1.15,2013-01-26 04:45:00,
2013-01-25 23:50:00,21.1,18.9,30.14,SW,233,3.0,3.0,91,0.00,,,0.00,Wunderground v.1.15,2013-01-26 04:50:00,
2013-01-25 23:55:00,21.2,19.0,30.14,SSW,213,3.0,5.0,91,0.00,,,0.00,Wunderground v.1.15,2013-01-26 04:55:00,